Location: Panticosa
(42.7240°N, 0.2833°W)
Time: 01:39:16
(UTC+00:00)

Daily predictions for brighter satellites

Satellite Brightness Start Highest point End
(mag) Time Altitude Azimuth Time Altitude Azimuth Time Altitude Azimuth
Cosmos 1758 4.1 00:00:37 10° N 00:03:41 51° N 00:03:41 51° N
SL-08 ROCKET BODY 4.2 00:00:18 10° NNW 00:06:09 70° W 00:06:46 65° SW
Cosmos 2221 Rocket 3.9 00:06:47 64° NE 00:06:47 64° NE 00:10:36 10° N
Cosmos 1674 Rocket 4.3 00:06:55 46° ENE 00:06:55 46° ENE 00:10:29 10° NNE
Cosmos 1244 Rocket 4.4 00:00:15 10° N 00:06:36 83° W 00:07:36 65° S
Cosmos 1461 3.5 00:02:50 10° NNW 00:06:31 56° NNE 00:06:31 56° NNE
Nadezhda 2 Rocket 4.3 00:02:12 10° N 00:08:21 77° W 00:09:13 65° SSW
Cosmos 1674 3.8 00:10:51 42° N 00:10:51 42° N 00:13:26 10° N
ATLAS CENTAUR R/B 2.5 00:10:25 10° NW 00:13:59 42° WNW 00:13:59 42° WNW
SL-16 R/B 4.4 00:16:08 12° ESE 00:16:57 12° E 00:18:57 10° ENE
Cosmos 1980 4.2 00:20:38 44° ESE 00:20:49 44° ESE 00:26:10 10° NE
Cosmos 2333 Rocket 3.2 00:19:42 32° W 00:21:28 40° WNW 00:26:48 10° NNE
Cosmos 1378 Rocket 3.8 00:22:19 64° NE 00:22:19 64° NE 00:26:15 10° NNE
Cosmos 2322 4.2 00:20:48 45° WSW 00:22:03 54° WNW 00:27:41 10° NNE
ATLAS 5 CENTAUR R/B 3.1 00:10:57 10° NW 00:23:14 69° NE 00:24:40 44° ESE
CZ-4C R/B 3.0 00:16:34 10° NW 00:24:00 89° NE 00:27:53 37° SE
Cosmos 1844 Rocket 4.3 00:22:59 10° NW 00:26:33 21° W 00:26:33 21° W
USA 215 4.3 00:22:14 10° NE 00:28:18 43° NNW 00:34:24 10° W
NOSS 0 Rocket 3.9 00:29:23 61° SSE 00:30:16 70° ESE 00:36:30 10° NNE
PSLV R/B 4.0 00:30:53 10° N 00:35:00 54° WNW 00:35:00 54° WNW
Cosmos 2151 Rocket 4.1 00:37:13 10° NNW 00:40:53 48° WNW 00:40:53 48° WNW
ADEOS Rocket 3.6 00:42:18 35° W 00:42:31 35° W 00:47:51 10° NNW
Cosmos 1745 Rocket 3.9 00:37:06 10° N 00:43:21 85° W 00:44:35 60° S
USA 308 3.6 00:44:47 46° ENE 00:44:47 46° ENE 00:47:49 10° NE
Cosmos 839 Rocket 4.4 00:37:56 10° NNW 00:44:21 69° NE 00:49:12 23° SE
Cosmos 2219 Rocket 3.4 00:42:56 28° W 00:44:47 34° NW 00:49:52 10° N
Okean 2 Rocket 4.0 00:41:32 10° NNW 00:45:13 40° WNW 00:45:13 40° WNW
Meteor 2-12 Rocket 4.4 00:44:51 10° N 00:50:57 79° E 00:52:26 53° SSE
Meteor 1-16 Rocket 4.2 00:45:14 10° NNW 00:51:10 73° W 00:52:02 62° SSW
GP-B 3.3 00:53:36 10° N 00:57:59 59° E 00:58:07 59° E
Lacrosse 5 2.8 00:58:31 34° ESE 00:58:31 34° ESE 01:02:44 10° ENE
CZ-2D R/B 3.2 00:56:18 10° NNE 01:01:07 33° E 01:02:28 29° SE
SL-14 R/B 3.8 01:02:27 53° NNW 01:02:27 53° NNW 01:05:39 10° N
Cosmos 1300 3.2 00:58:17 10° N 01:01:27 58° NNE 01:01:27 58° NNE
USA 267 3.3 01:02:15 49° SSW 01:02:55 51° SW 01:09:17 10° WNW
ASTEX 1 4.5 01:00:24 10° NNW 01:04:42 31° WNW 01:05:07 30° W
Cosmos 883 Rocket 4.4 01:04:14 54° SSW 01:05:49 86° W 01:12:12 10° N
Cosmos 371 Rocket 3.4 01:06:03 59° W 01:06:26 62° WNW 01:11:16 10° NNE
Cosmos 2150 Rocket 4.1 01:06:08 55° WSW 01:06:50 61° WNW 01:11:57 10° NNE
USA 305 3.1 01:07:08 63° NW 01:07:08 63° NW 01:11:17 10° NE
NOSS 2-2 (C) 4.3 01:04:21 10° NW 01:09:42 80° SW 01:12:46 36° SSE
USA 229 DEB 3.9 01:03:55 10° NW 01:11:21 74° WSW 01:15:06 34° SSE
USA 229 3.9 01:04:01 10° NW 01:11:26 74° WSW 01:15:14 34° SSE
Cosmos 2237 Rocket 2.2 01:11:28 56° SW 01:12:39 76° WNW 01:18:23 10° NNE
COSMOS 2428 4.1 01:12:16 23° W 01:14:32 29° NW 01:19:29 10° N
Cosmos 405 Rocket 4.4 01:18:03 23° WNW 01:18:03 23° WNW 01:20:38 10° NNW
Cosmos 304 Rocket 3.6 01:17:17 70° WSW 01:17:44 78° WNW 01:22:36 10° NNE
SL-16 R/B 3.4 01:14:42 16° SE 01:19:21 47° ENE 01:25:16 10° N
Cosmos 1437 Rocket 4.2 01:17:05 10° NNW 01:19:16 26° WNW 01:19:16 26° WNW
Cosmos 1125 Rocket 4.1 01:20:00 39° W 01:21:02 44° WNW 01:26:01 10° N
Lacrosse 5 rocket 2.8 01:21:54 25° ESE 01:21:54 25° ESE 01:24:27 10° ENE
Okean 1 Rocket 4.0 01:20:26 10° NNW 01:24:05 36° WNW 01:24:05 36° WNW
SME Rocket 3.0 01:24:34 70° SE 01:25:00 82° ENE 01:29:50 10° NNW
Cosmos 1953 3.7 01:23:43 10° NNW 01:26:26 28° WNW 01:26:26 28° WNW
Resurs 1-4 Rocket 2.3 01:25:12 10° NNE 01:30:26 63° ESE 01:31:56 44° SSE
Cosmos 1943 Rocket 2.9 01:28:28 10° NNW 01:34:01 52° ENE 01:39:28 10° SE
MOZ.5/SAFIR/RUBIN 5/SL-8 3.7 01:33:59 59° SW 01:34:24 62° W 01:39:07 10° NNW
Cosmos 2315 Rocket 4.2 01:35:34 41° SW 01:37:33 58° W 01:43:51 10° N
Cosmos 1709 Rocket 4.2 01:31:50 10° NNW 01:37:45 52° W 01:39:17 42° SW
NOSS 3-1 (A) 4.5 01:30:35 10° NW 01:37:55 44° WSW 01:40:38 35° SSW
Cosmos 2184 Rocket 4.3 01:38:29 10° N 01:44:43 64° E 01:48:45 22° SSE
Cosmos 2278 Rocket 2.8 01:39:57 10° NW 01:45:05 37° WSW 01:45:23 36° WSW
ADEOS II 2.8 01:41:17 10° NNE 01:46:20 45° E 01:48:40 28° SSE
IDEFIX/ARIANE 42P 3.6 01:42:17 10° NNE 01:47:12 38° E 01:49:52 23° SSE
USA 306 4.1 01:47:33 25° WNW 01:49:18 36° NNW 01:53:11 10° NE
Cosmos 2084 Rocket 3.2 01:49:15 63° WNW 01:49:30 65° NW 01:53:17 10° NNE
USA 307 4.0 01:51:04 26° WNW 01:52:45 38° NNW 01:56:42 10° NE
Thor Agena Rocket 4.2 01:49:33 10° N 01:54:32 43° WNW 01:56:09 34° WSW
ERBS 3.8 01:54:54 26° NW 01:55:07 26° NW 01:57:46 10° NNE
NPP 3.6 01:53:02 10° NNE 01:58:28 89° E 02:00:36 39° SSW
Cosmos 2369 Rocket 3.9 01:54:05 10° N 01:59:07 33° NE 02:04:07 10° ESE
SL-16 R/B 2.1 01:58:00 40° SSW 02:00:08 89° ESE 02:05:51 10° NNE
Cosmos 1455 Rocket 3.6 01:58:38 10° NNW 02:02:50 41° W 02:03:15 40° WSW
CZ-4 R/B 3.8 01:58:46 10° N 02:03:23 64° WNW 02:04:41 44° SW
EO 1 Del DPAF 3.9 02:01:04 10° NNE 02:04:25 42° E 02:05:16 35° SE
Meteor 1-28 Rocket 3.9 02:03:37 26° SE 02:05:25 51° ENE 02:09:04 10° N
COSMOS 2455 3.1 02:04:48 31° S 02:07:38 59° ESE 02:13:33 10° NE
Cosmos 1536 Rocket 3.7 02:08:03 37° S 02:09:43 71° E 02:14:06 10° NNE
CZ-4C R/B 4.1 02:06:18 10° WNW 02:12:08 23° WSW 02:12:59 23° WSW
Cosmos 1975 Rocket 4.3 02:16:47 25° W 02:17:38 27° WNW 02:21:25 10° NNW
Nadezhda 1 Rocket 4.0 02:15:05 25° S 02:19:03 83° E 02:25:23 10° N
Meteor 1-24 Rocket 4.1 02:17:03 32° SW 02:19:18 49° WNW 02:24:37 10° N
UNK 3.7 02:19:09 34° S 02:21:00 64° WSW 02:25:35 10° NNW
MSX 4.1 02:18:39 10° NNE 02:24:23 64° ESE 02:28:24 20° S
Cosmos 1025 Rocket 4.2 02:23:55 25° W 02:24:49 27° WNW 02:28:30 10° NNW
MOS 1 Rocket 3.0 02:23:22 34° S 02:25:05 66° WSW 02:29:22 10° NNW
YAOGAN 11 4.1 02:23:45 34° SSW 02:25:31 61° WSW 02:29:59 10° NNW
Cosmos 1455 2.3 02:23:01 10° NNW 02:26:38 53° W 02:27:23 44° SW
Cosmos 1271 Rocket 2.7 02:26:39 10° N 02:30:29 83° E 02:32:45 24° SSE
Lacrosse 5 2.6 02:37:42 20° WSW 02:41:00 47° NW 02:45:56 10° NE
CZ-2D R/B 3.1 02:36:21 10° N 02:41:06 33° WNW 02:43:47 21° WSW
Helios 1B rocket 3.8 02:41:38 10° NNE 02:45:23 34° E 02:49:06 10° SSE
Cosmos 2341 Rocket 4.4 02:41:10 10° N 02:47:33 67° E 02:53:53 10° SSE
BREEZE-M DEB (TANK) 3.2 02:47:13 23° SW 02:50:03 51° SSE 02:52:38 10° ENE
Cosmos 2154 Rocket 4.2 02:44:46 10° NNW 02:50:57 56° W 02:56:00 15° SSW
Cosmos 407 Rocket 4.5 02:47:50 10° N 02:53:02 50° ENE 02:58:07 10° SE
Cosmos 1943 3.5 02:50:42 17° S 02:55:10 66° ESE 03:00:49 10° NNE
Cosmos 1328 4.2 02:52:12 15° S 02:55:24 62° E 02:59:21 10° NNE
Helios 1A 3.3 02:53:26 22° SSW 02:55:46 44° W 02:59:50 10° NNW
Cosmos 2237 Rocket 4.4 02:54:45 10° WNW 02:57:44 14° NW 03:00:44 10° NNW
Lacrosse 5 rocket 2.2 02:57:25 17° W 02:59:58 39° NW 03:03:49 10° NE
SL-16 R/B 3.4 02:59:47 19° SW 03:03:05 29° W 03:08:27 10° NW
Cosmos 1140 Rocket 3.9 02:58:47 10° NNW 03:04:01 65° ENE 03:09:13 10° SSE
Lacrosse 4 Rocket 4.0 03:04:59 10° SE 03:07:37 16° ESE 03:10:13 10° ENE
Cosmos 1892 Rocket 3.8 03:04:44 10° S 03:09:09 71° E 03:13:37 10° NNE
Resurs 1-4 Rocket 3.8 03:06:11 10° NNW 03:09:45 19° WNW 03:13:01 11° WSW
SeaSat 1 4.3 03:06:34 10° NE 03:10:34 25° ESE 03:14:34 10° SSE
Cosmos 1703 4.2 03:11:07 19° SW 03:13:17 32° WNW 03:16:51 10° N
Cosmos 1726 Rocket 3.5 03:09:49 10° N 03:14:15 90° WSW 03:18:38 10° S
Cosmos 1943 Rocket 3.3 03:12:58 10° NW 03:17:23 24° WSW 03:20:53 13° SW
NOSS 3-3 (A) 3.9 03:13:34 16° SW 03:18:11 84° NW 03:24:37 10° NE
NOSS 3-3 (C) 3.8 03:13:40 16° SW 03:18:17 84° NW 03:24:43 10° NE
Cosmos 2263 4.2 03:12:39 10° NNW 03:18:22 84° WSW 03:24:05 10° SSE
FENGYUN 3A 4.1 03:13:15 10° NNE 03:18:36 63° ESE 03:23:55 10° S
Cosmos 1023 Rocket 4.5 03:17:02 10° NNW 03:22:20 84° WSW 03:27:35 10° SSE
Cosmos 1825 4.3 03:21:00 10° SSE 03:24:04 25° E 03:27:10 10° NE
SL-24 DEB 4.3 03:20:50 10° S 03:25:35 89° W 03:30:20 10° N
ADEOS II 3.4 03:21:32 10° N 03:25:43 25° WNW 03:29:36 11° WSW
GPS 2-04 Rocket1 4.2 03:24:12 13° SSW 03:25:57 18° SSE 03:28:23 10° ESE
IDEFIX/ARIANE 42P 3.7 03:22:08 10° N 03:26:36 29° WNW 03:30:40 12° WSW
Cosmos 1624 Rocket 4.4 03:22:20 10° S 03:27:36 67° ESE 03:32:52 10° NNE
ARIANE 5 R/B 3.3 03:23:53 10° NNE 03:28:50 52° E 03:33:41 10° S
CBERS-1 4.1 03:26:40 10° N 03:31:44 64° WNW 03:36:47 10° SSW
Cosmos 2218 Rocket 4.0 03:29:52 10° N 03:36:07 77° W 03:42:24 10° S
DNEPR-1 R/B 3.6 03:32:36 12° SW 03:36:23 67° NW 03:41:00 10° NNE
MOS 1-B Rocket 3.8 03:31:12 10° S 03:36:46 64° WSW 03:42:28 10° NNW
Cosmos 2056 Rocket 3.6 03:34:02 10° SSW 03:39:12 84° ESE 03:44:29 10° NNE
Cosmos 1892 2.7 03:36:34 10° S 03:40:21 81° E 03:44:09 10° N
Cosmos 2228 4.3 03:37:16 10° NW 03:40:41 23° W 03:44:03 10° SW
DEBRIS 3.8 03:33:35 10° WNW 03:41:51 62° NNE 03:44:44 10° E
DELTA 2 DEB (DPAF) 4.3 03:37:33 10° SSE 03:41:58 78° ENE 03:46:24 10° N
Cosmos 2369 Rocket 2.7 03:38:03 10° NW 03:43:10 38° WSW 03:48:16 10° S
SL-16 R/B 4.1 03:41:29 10° W 03:45:04 17° NW 03:48:40 10° N
OAO 2 Rocket 4.4 03:41:17 10° SW 03:45:31 29° S 03:49:44 10° ESE
Cosmos 2251 Rocket 4.3 03:42:34 10° NW 03:47:08 31° W 03:51:43 10° SSW
Cosmos 2058 Rocket 3.1 03:44:56 10° NNW 03:49:17 65° W 03:53:35 10° S
Cosmos 2181 Rocket 4.2 03:44:07 10° SSW 03:50:13 55° WNW 03:56:17 10° N
[s.n.52708] 2.6 03:48:14 10° SW 03:51:02 75° SE 03:53:51 10° NE
[s.n.52707] 2.6 03:48:20 10° SW 03:51:09 75° SE 03:53:58 10° NE
[s.n.52703] 2.6 03:48:28 10° SW 03:51:15 76° SE 03:54:06 10° NE
[s.n.52705] 2.6 03:48:33 10° SW 03:51:21 76° SE 03:54:11 10° NE
[s.n.52706] 2.6 03:48:40 10° SW 03:51:28 76° SE 03:54:18 10° NE
[s.n.52701] 2.6 03:48:46 10° SW 03:51:35 76° SE 03:54:25 10° NE
[s.n.52704] 2.6 03:48:53 10° SW 03:51:41 76° SE 03:54:32 10° NE
[s.n.52699] 2.6 03:49:00 10° SW 03:51:48 77° SE 03:54:39 10° NE
[s.n.52702] 2.6 03:49:07 10° SW 03:51:56 77° SE 03:54:45 10° NE
[s.n.52697] 2.6 03:49:13 10° SW 03:52:02 77° SE 03:54:52 10° NE
Cosmos 1656 Rocket 4.1 03:47:08 10° NW 03:52:08 39° WSW 03:57:08 10° S
[s.n.52700] 2.6 03:49:20 10° SW 03:52:08 77° SE 03:54:58 10° NE
[s.n.52695] 2.6 03:49:27 10° SW 03:52:15 78° SE 03:55:05 10° NE
[s.n.52698] 2.6 03:49:33 10° SW 03:52:22 78° SE 03:55:12 10° NE
[s.n.52693] 2.6 03:49:41 10° SW 03:52:29 78° SE 03:55:19 10° NE
[s.n.52696] 2.6 03:49:46 10° SW 03:52:36 78° SE 03:55:26 10° NE
[s.n.52691] 2.6 03:49:53 10° SW 03:52:42 78° SE 03:55:32 10° NE
[s.n.52689] 2.6 03:50:01 10° SW 03:52:50 79° SE 03:55:39 10° NE
[s.n.52694] 2.6 03:50:07 10° SW 03:52:56 79° SE 03:55:46 10° NE
[s.n.52692] 2.6 03:50:14 10° SW 03:53:02 79° SE 03:55:53 10° NE
IRS-P3 4.2 03:47:44 10° NNE 03:53:06 86° WNW 03:58:26 10° SSW
[s.n.52687] 2.6 03:50:20 10° SW 03:53:10 79° SE 03:56:00 10° NE
[s.n.52685] 2.6 03:50:27 10° SW 03:53:16 80° SE 03:56:06 10° NE
[s.n.52690] 2.6 03:50:34 10° SW 03:53:23 80° SE 03:56:13 10° NE
Cosmos 1408 2.7 03:49:50 10° SSW 03:53:24 56° W 03:57:00 10° N
[s.n.52688] 2.6 03:50:40 10° SW 03:53:30 80° SE 03:56:19 10° NE
Cosmos 2098 4.1 03:50:33 10° NNW 03:53:35 67° W 03:56:34 10° S
[s.n.52683] 2.6 03:50:47 10° SW 03:53:36 80° SE 03:56:27 10° NE
[s.n.52686] 2.6 03:50:54 10° SW 03:53:43 81° SE 03:56:34 10° NE
[s.n.52681] 2.6 03:51:01 10° SW 03:53:50 81° SE 03:56:40 10° NE
COSMOS 2455 4.2 03:48:51 10° WSW 03:53:57 28° NW 03:59:04 10° NNE
[s.n.52679] 2.6 03:51:07 10° SW 03:53:57 81° SE 03:56:47 10° NE
[s.n.52684] 2.6 03:51:14 10° SW 03:54:04 81° SE 03:56:54 10° NE
[s.n.52682] 2.6 03:51:21 10° SW 03:54:11 82° SE 03:57:01 10° NE
[s.n.52677] 2.6 03:51:28 10° SW 03:54:17 82° SE 03:57:08 10° NE
Cosmos 1626 Rocket 3.9 03:49:57 10° S 03:54:19 72° E 03:58:42 10° NNE
[s.n.52680] 2.6 03:51:36 10° SW 03:54:25 82° SE 03:57:15 10° NE
[s.n.52675] 2.6 03:51:42 10° SW 03:54:32 82° SE 03:57:22 10° NE
[s.n.52678] 2.6 03:51:49 10° SW 03:54:39 83° SE 03:57:29 10° NE
Cosmos 1190 Rocket 4.0 03:49:24 10° NNW 03:54:42 72° WSW 03:59:58 10° S
[s.n.52673] 2.6 03:51:57 10° SW 03:54:46 83° SE 03:57:37 10° NE
[s.n.52676] 2.6 03:52:03 10° SW 03:54:52 83° SE 03:57:43 10° NE
[s.n.52671] 2.6 03:52:11 10° SW 03:55:00 83° SE 03:57:50 10° NE
[s.n.52669] 2.6 03:52:17 10° SW 03:55:07 83° SE 03:57:57 10° NE
[s.n.52674] 2.6 03:52:24 10° SW 03:55:14 84° SE 03:58:04 10° NE
[s.n.52672] 2.6 03:52:30 10° SW 03:55:20 84° SE 03:58:11 10° NE
[s.n.52667] 2.6 03:52:39 10° SW 03:55:28 84° SE 03:58:18 10° NE
[s.n.52665] 2.6 03:52:45 10° SW 03:55:35 84° SE 03:58:26 10° NE
[s.n.52670] 2.6 03:52:52 10° SW 03:55:42 85° SE 03:58:33 10° NE
[s.n.52668] 2.6 03:52:59 10° SW 03:55:49 85° SE 03:58:40 10° NE
[s.n.52666] 2.6 03:53:06 10° SW 03:55:56 85° SE 03:58:47 10° NE
[s.n.52663] 2.6 03:53:13 10° SW 03:56:03 85° SE 03:58:54 10° NE
[s.n.52662] 2.6 03:53:20 10° SW 03:56:10 86° SE 03:59:01 10° NE
[s.n.52664] 2.6 03:53:28 10° SW 03:56:17 86° SE 03:59:08 10° NE
[s.n.52661] 2.6 03:53:34 10° SW 03:56:24 86° SE 03:59:15 10° NE
[s.n.52660] 2.6 03:53:41 10° SW 03:56:31 86° SE 03:59:22 10° NE
[s.n.52656] 2.6 03:53:48 10° SW 03:56:38 87° SE 03:59:28 10° NE
[s.n.52658] 2.6 03:53:56 10° SW 03:56:46 87° SE 03:59:37 10° NE
[s.n.52659] 2.6 03:54:02 10° SW 03:56:53 87° SE 03:59:43 10° NE
Cosmos 1821 Rocket 4.4 03:50:30 10° N 03:56:55 76° E 04:03:18 10° SSE
[s.n.52657] 2.6 03:54:11 10° SW 03:57:00 87° SE 03:59:51 10° NE
In-Cosmos 22 Rocket 4.4 03:53:27 10° S 03:59:15 90° E 04:05:07 10° N
